This is the latest recevied weather packets stored in our database for station/object KD2SIG. If no packets are shown the sender has not sent any weather packets the latest 10 day(s).
| Time | Temp. | Humidity | Pressure | Rain* | Wind** | Luminosity | Snow |
|---|---|---|---|---|---|---|---|
| 1777496386 | 11.67° C | 91% | 1008.6 hPa | 1.27 mm | - | 26 W/m² | - |
| 1777496083 | 12.22° C | 90% | 1008.6 hPa | 1.27 mm | - | 25 W/m² | - |
| 1777495779 | 12.22° C | 90% | 1008.5 hPa | 0 mm | - | 26 W/m² | - |
| 1777495476 | 12.22° C | 90% | 1008.6 hPa | 0 mm | - | 29 W/m² | - |
| 1777495172 | 12.22° C | 89% | 1008.6 hPa | 0 mm | - | 29 W/m² | - |
| 1777494869 | 12.22° C | 89% | 1008.6 hPa | 1.78 mm | - | 40 W/m² | - |
| 1777494566 | 12.22° C | 88% | 1008.7 hPa | 1.78 mm | - | 39 W/m² | - |
| 1777494264 | 12.22° C | 87% | 1008.6 hPa | 0 mm | - | 52 W/m² | - |
| 1777493960 | 12.78° C | 87% | 1008.8 hPa | 0 mm | - | 56 W/m² | - |
| 1777493658 | 12.78° C | 86% | 1008.8 hPa | 0 mm | - | 40 W/m² | - |
| 1777493355 | 12.78° C | 85% | 1008.9 hPa | 0 mm | - | 22 W/m² | - |
| 1777493051 | 12.78° C | 84% | 1009.2 hPa | 0 mm | - | 17 W/m² | - |
| 1777492749 | 13.33° C | 84% | 1009 hPa | 0 mm | - | 20 W/m² | - |
| 1777492443 | 13.33° C | 83% | 1009.2 hPa | 0 mm | - | 24 W/m² | - |
| 1777492141 | 13.33° C | 83% | 1009.3 hPa | 0 mm | - | 23 W/m² | - |
| 1777491837 | 13.89° C | 82% | 1009.3 hPa | 0 mm | - | 40 W/m² | - |
| 1777491534 | 13.89° C | 82% | 1009.2 hPa | 0 mm | - | 49 W/m² | - |
| 1777491231 | 13.89° C | 81% | 1009.4 hPa | 0 mm | - | 40 W/m² | - |
| 1777490927 | 13.89° C | 80% | 1009.5 hPa | 0 mm | - | 27 W/m² | - |
| 1777490623 | 13.89° C | 80% | 1009.4 hPa | 0 mm | - | 33 W/m² | - |
| 1777490319 | 14.44° C | 80% | 1009.3 hPa | 0 mm | - | 64 W/m² | - |
| 1777490017 | 14.44° C | 80% | 1009.3 hPa | 0 mm | - | 67 W/m² | - |
| 1777489715 | 14.44° C | 79% | 1009.6 hPa | 0 mm | - | 56 W/m² | - |
| 1777489411 | 14.44° C | 79% | 1009.6 hPa | 0 mm | - | 41 W/m² | - |
| 1777489108 | 14.44° C | 78% | 1009.8 hPa | 0 mm | - | 56 W/m² | - |
* Rain latest hour (hover to see other rain measurements)
** Current wind speed in m/s (hover to see current wind gust speed)